Date String (YYYY-MM-DD hh:mm:ss) UTC,Instrument flags,Ambient pressure (hPa),Sample flow (lpm),Bypass flow (lpm),Sample temperature (°C),Ambient temperature (°C),ASC tube jacket temperature (°C),LED temperature (°C),Box temperature (°C),Sample RH (%),Span deviation,Mass concentration (μg/m³),Mass concentration (μg/m³),Mass concentration (μg/m³)
DateTimeUTC,F1_M11,P_M11,Q1_M11,Q2_M11,T1_M11,T2_M11,T3_M11,T4_M11,T5_M11,U1_M11,ZSPAN_M11,X0_M11,X2_M11,X1_M11
2022-12-11 09:00:00,,0822.2,4.99,0.00,22.3,20.9,00.0,31.3,24.0,09.7,0000.0,0015.69,0007.09,0006.03
2022-12-11 09:01:00,,0822.2,4.98,0.00,22.3,20.9,00.0,31.2,24.1,09.6,0000.0,0015.21,0007.09,0006.04
2022-12-11 09:02:00,,0822.2,5.02,0.00,22.3,20.9,00.0,31.2,24.1,09.6,0000.0,0014.71,0007.07,0006.03
2022-12-11 09:03:00,,0822.3,5.01,0.00,22.3,20.9,00.0,31.2,24.1,09.6,0000.0,0015.25,0007.07,0006.01
2022-12-11 09:04:00,,0822.2,4.99,0.00,22.3,20.9,00.0,31.2,24.1,09.6,0000.0,0015.25,0007.02,0005.97
2022-12-11 09:05:00,,0822.2,4.99,0.00,22.3,20.9,00.0,31.2,24.1,09.6,0000.0,0015.28,0007.01,0005.95
2022-12-11 09:06:00,,0822.1,4.99,0.00,22.3,20.9,00.0,31.2,24.1,09.5,0000.0,0014.48,0006.94,0005.94
2022-12-11 09:07:00,,0822.0,5.02,0.00,22.3,20.9,00.0,31.2,24.1,09.5,0000.0,0014.41,0006.94,0005.93
2022-12-11 09:08:00,,0822.0,5.01,0.00,22.3,21.0,00.0,31.2,24.1,09.5,0000.0,0014.42,0006.89,0005.92
2022-12-11 09:09:00,,0822.2,4.99,0.00,22.4,21.0,00.0,31.2,24.2,09.5,0000.0,0014.48,0006.88,0005.92
2022-12-11 09:10:00,,0822.4,4.99,0.00,22.4,21.0,00.0,31.2,24.2,09.7,0000.0,0014.19,0006.90,0005.92
2022-12-11 09:11:00,,0822.4,4.99,0.00,22.4,21.0,00.0,31.2,24.1,09.9,0000.0,0013.56,0006.86,0005.90
2022-12-11 09:12:00,,0822.4,5.01,0.00,22.3,20.9,00.0,31.2,24.0,09.9,0000.0,0013.77,0006.89,0005.92
2022-12-11 09:13:00,,0822.4,5.02,0.00,22.3,20.9,00.0,31.2,24.1,09.8,0000.0,0013.75,0006.89,0005.92
2022-12-11 09:14:00,,0822.3,4.99,0.00,22.3,20.9,00.0,31.2,24.1,09.7,0000.0,0012.97,0006.93,0005.93
2022-12-11 09:15:00,,0822.2,4.98,0.00,22.3,20.9,00.0,31.2,24.1,09.7,0000.0,0013.21,0007.10,0005.95
2022-12-11 09:16:00,,0822.2,4.99,0.00,22.3,20.9,00.0,31.2,24.1,09.6,0000.0,0013.28,0007.16,0005.97
2022-12-11 09:17:00,,0822.2,5.01,0.00,22.3,20.9,00.0,31.2,24.1,09.5,0000.0,0013.86,0007.19,0005.99
2022-12-11 09:18:00,,0822.2,5.01,0.00,22.3,20.7,00.0,31.2,24.1,09.5,0000.0,0014.41,0007.22,0006.02
2022-12-11 09:19:00,,0822.2,4.99,0.00,22.3,20.7,00.0,31.2,24.1,09.6,0000.0,0015.29,0007.23,0006.01
2022-12-11 09:20:00,,0822.2,4.99,0.00,22.3,20.7,00.0,31.2,24.1,09.7,0000.0,0015.96,0007.23,0006.01
2022-12-11 09:21:00,,0822.3,5.01,0.00,22.2,20.7,00.0,31.2,24.0,09.7,0000.0,0016.62,0007.21,0005.97
2022-12-11 09:22:00,,0822.3,5.03,0.00,22.2,20.7,00.0,31.2,24.0,09.6,0000.0,0016.55,0007.16,0005.96
2022-12-11 09:23:00,,0822.3,4.99,0.00,22.2,20.7,00.0,31.1,24.0,09.5,0000.0,0016.39,0007.11,0005.93
2022-12-11 09:24:00,,0822.3,4.98,0.00,22.2,20.7,00.0,31.1,24.1,09.5,0000.0,0016.31,0007.06,0005.91
2022-12-11 09:25:00,,0822.4,5.00,0.00,22.2,20.7,00.0,31.1,24.1,09.5,0000.0,0016.64,0007.04,0005.88
2022-12-11 09:26:00,,0822.3,5.01,0.00,22.2,20.8,00.0,31.1,24.0,09.6,0000.0,0017.09,0006.94,0005.85
2022-12-11 09:27:00,,0822.3,5.02,0.00,22.2,20.8,00.0,31.1,24.0,09.6,0000.0,0016.94,0006.89,0005.83
2022-12-11 09:28:00,,0822.2,4.99,0.00,22.2,20.8,00.0,31.1,24.0,09.6,0000.0,0017.19,0006.91,0005.80
2022-12-11 09:29:00,,0822.2,4.99,0.00,22.2,20.8,00.0,31.1,24.0,09.6,0000.0,0016.62,0006.89,0005.77
2022-12-11 09:30:00,,0822.3,4.99,0.00,22.2,20.8,00.0,31.1,24.0,09.6,0000.0,0015.77,0006.91,0005.77
2022-12-11 09:31:00,,0822.3,5.02,0.00,22.2,20.8,00.0,31.1,24.0,09.6,0000.0,0015.22,0006.93,0005.77
2022-12-11 09:32:00,,0822.4,5.01,0.00,22.2,20.8,00.0,31.1,24.0,09.6,0000.0,0015.39,0007.01,0005.79
2022-12-11 09:33:00,,0822.5,4.99,0.00,22.2,20.8,00.0,31.1,24.0,09.6,0000.0,0015.36,0007.03,0005.80
2022-12-11 09:34:00,,0822.5,4.99,0.00,22.2,20.8,00.0,31.1,24.0,09.6,0000.0,0015.37,0007.07,0005.81
2022-12-11 09:35:00,,0822.4,4.99,0.00,22.2,20.8,00.0,31.1,24.0,09.6,0000.0,0016.19,0007.10,0005.81
2022-12-11 09:36:00,,0822.3,5.01,0.00,22.2,20.8,00.0,31.1,24.0,09.6,0000.0,0017.49,0007.10,0005.83
2022-12-11 09:37:00,,0822.3,5.02,0.00,22.2,20.8,00.0,31.1,24.0,09.6,0000.0,0017.25,0007.11,0005.82
2022-12-11 09:38:00,,0822.3,4.99,0.00,22.2,20.8,00.0,31.1,24.1,09.6,0000.0,0017.70,0007.07,0005.82
2022-12-11 09:39:00,,0822.3,4.98,0.00,22.2,20.8,00.0,31.1,24.1,09.6,0000.0,0017.39,0007.08,0005.83
2022-12-11 09:40:00,,0822.3,4.99,0.00,22.2,20.8,00.0,31.1,24.0,09.6,0000.0,0017.37,0007.09,0005.83
2022-12-11 09:41:00,,0822.4,5.02,0.00,22.2,20.8,00.0,31.1,24.0,09.6,0000.0,0017.43,0007.06,0005.82
2022-12-11 09:42:00,,0822.5,5.01,0.00,22.2,20.8,00.0,31.1,24.0,09.7,0000.0,0017.65,0007.04,0005.81
2022-12-11 09:43:00,,0822.4,4.98,0.00,22.2,20.8,00.0,31.1,23.9,09.7,0000.0,0017.21,0006.96,0005.81
2022-12-11 09:44:00,,0822.4,4.99,0.00,22.2,20.8,00.0,31.1,23.9,09.7,0000.0,0017.46,0006.92,0005.79
2022-12-11 09:45:00,,0822.4,5.02,0.00,22.2,20.7,00.0,31.1,23.9,09.7,0000.0,0017.54,0006.90,0005.78
2022-12-11 09:46:00,,0822.3,5.00,0.00,22.1,20.6,00.0,31.1,23.9,09.6,0000.0,0017.09,0006.92,0005.78
2022-12-11 09:47:00,,0822.3,4.99,0.00,22.1,20.3,00.0,31.0,23.9,09.7,0000.0,0016.00,0006.89,0005.76
2022-12-11 09:48:00,,0822.1,4.99,0.00,22.1,20.2,00.0,31.0,23.8,09.7,0000.0,0016.12,0006.83,0005.76
2022-12-11 09:49:00,,0822.1,5.03,0.00,22.0,20.3,00.0,31.0,23.9,09.7,0000.0,0016.37,0006.84,0005.75
2022-12-11 09:50:00,,0822.2,4.98,0.00,22.0,20.3,00.0,31.0,23.8,09.7,0000.0,0016.57,0006.79,0005.75
2022-12-11 09:51:00,,0822.2,4.99,0.00,22.1,20.7,00.0,31.0,23.9,09.7,0000.0,0017.14,0006.80,0005.77
2022-12-11 09:52:00,,0822.3,5.01,0.00,22.1,21.5,00.0,31.0,24.1,09.8,0000.0,0017.16,0006.85,0005.81
2022-12-11 09:53:00,,0822.4,5.01,0.00,22.2,22.0,00.0,31.0,24.3,10.0,0000.0,0017.97,0006.93,0005.85
2022-12-11 09:54:00,,0822.3,5.01,0.00,22.3,21.8,00.0,31.0,24.3,09.8,0000.0,0018.14,0006.98,0005.88
2022-12-11 09:55:00,,0822.2,4.99,0.00,22.3,21.6,00.0,31.0,24.2,09.6,0000.0,0018.68,0007.01,0005.90
2022-12-11 09:56:00,,0822.2,4.98,0.00,22.3,21.4,00.0,31.0,24.2,09.5,0000.0,0019.93,0007.02,0005.93
2022-12-11 09:57:00,,0822.2,4.99,0.00,22.3,21.2,00.0,31.0,24.2,09.5,0000.0,0021.30,0007.06,0005.99
2022-12-11 09:58:00,,0822.2,5.01,0.00,22.3,21.0,00.0,31.0,24.1,09.5,0000.0,0021.43,0007.15,0006.05
2022-12-11 09:59:00,,0822.2,5.02,0.00,22.2,20.9,00.0,31.0,24.1,09.5,0000.0,0021.38,0007.22,0006.11
